When you browse on this site, cookies collect data to enhance your experience and personalize the content and advertising you see.
Visit our Privacy Policy to learn more. By continuing to use the site, you agree to this use of cookies and data.
  • In United Kingdom
  • List of Countries
  • For 7 days
  • Water Temperature
  • Satellite Maps
  • Weather Map
  • Weather Widgets
  • user-avatar
    Login

    Hourly Weather Santa Cruz Xoxocotlan

    Today, 19 June, Wednesday

    Time Temperature Precipitation Wind Pressure Humidity
    00:00 +20°C° 0 mm 1 mps 635 mmHg 84%
    01:00 +18°C° 0 mm 0 mps 634 mmHg 85%
    02:00 +18°C° 0 mm 0 mps 633 mmHg 86%
    03:00 +17°C° 0 mm 0 mps 633 mmHg 86%
    04:00 +19°C° 0 mm 1 mps 633 mmHg 86%
    05:00 +19°C° 0 mm 1 mps 633 mmHg 86%
    06:00 +17°C° 0 mm 0 mps 633 mmHg 88%
    07:00 +19°C° 0 mm 0 mps 634 mmHg 80%
    08:00 +21°C° 0 mm 0 mps 634 mmHg 73%
    09:00 +23°C° 0 mm 0 mps 635 mmHg 66%
    10:00 +27°C° 0 mm 1 mps 635 mmHg 59%
    11:00 +28°C° 0 mm 1 mps 636 mmHg 53%
    12:00 +30°C° 0 mm 1 mps 636 mmHg 47%
    13:00 +30°C° 0.1 mm 1 mps 635 mmHg 47%
    14:00 +30°C° 0.1 mm 1 mps 635 mmHg 46%
    15:00 +30°C° 0.1 mm 2 mps 634 mmHg 46%
    16:00 +29°C° 0.5 mm 2 mps 634 mmHg 52%
    17:00 +28°C° 0.5 mm 2 mps 634 mmHg 59%
    18:00 +27°C° 0.5 mm 2 mps 633 mmHg 66%
    19:00 +26°C° 1.3 mm 2 mps 633 mmHg 73%
    20:00 +24°C° 1.3 mm 1 mps 633 mmHg 79%
    21:00 +22°C° 1.3 mm 1 mps 633 mmHg 86%
    22:00 +22°C° 1.3 mm 1 mps 633 mmHg 87%
    23:00 +21°C° 1.3 mm 1 mps 633 mmHg 89%

    Tomorrow, 20 June, Thursday

    Time Temperature Precipitation Wind Pressure Humidity
    00:00 +21°C° 1.3 mm 1 mps 634 mmHg 90%
    01:00 +20°C° 0.1 mm 1 mps 633 mmHg 89%
    02:00 +20°C° 0.1 mm 1 mps 633 mmHg 88%
    03:00 +20°C° 0.1 mm 1 mps 632 mmHg 87%
    04:00 +20°C° 0 mm 1 mps 632 mmHg 87%
    05:00 +19°C° 0 mm 1 mps 632 mmHg 87%
    06:00 +19°C° 0 mm 1 mps 632 mmHg 87%
    07:00 +21°C° 0 mm 1 mps 633 mmHg 79%
    08:00 +22°C° 0 mm 0 mps 634 mmHg 72%
    09:00 +24°C° 0 mm 0 mps 635 mmHg 64%
    10:00 +27°C° 0 mm 1 mps 635 mmHg 57%
    11:00 +29°C° 0 mm 1 mps 636 mmHg 51%
    12:00 +30°C° 0 mm 1 mps 636 mmHg 44%
    13:00 +31°C° 0 mm 1 mps 635 mmHg 44%
    14:00 +31°C° 0 mm 2 mps 635 mmHg 44%
    15:00 +31°C° 0 mm 2 mps 634 mmHg 44%
    16:00 +29°C° 0.8 mm 2 mps 634 mmHg 53%
    17:00 +28°C° 0.8 mm 2 mps 634 mmHg 62%
    18:00 +26°C° 0.8 mm 2 mps 633 mmHg 71%
    19:00 +25°C° 0.7 mm 1 mps 633 mmHg 77%
    20:00 +23°C° 0.7 mm 1 mps 633 mmHg 82%
    21:00 +22°C° 0.7 mm 1 mps 633 mmHg 88%
    22:00 +20°C° 0.1 mm 0 mps 633 mmHg 88%
    23:00 +19°C° 0.1 mm 0 mps 633 mmHg 89%

    Day after tomorrow, 21 June, Friday

    Time Temperature Precipitation Wind Pressure Humidity
    00:00 +19°C° 0.1 mm 0 mps 634 mmHg 89%
    01:00 +18°C° 0.1 mm 0 mps 633 mmHg 89%
    02:00 +18°C° 0.1 mm 0 mps 633 mmHg 89%
    03:00 +18°C° 0.1 mm 0 mps 632 mmHg 89%
    04:00 +18°C° 0 mm 0 mps 632 mmHg 89%
    05:00 +17°C° 0 mm 0 mps 632 mmHg 89%
    06:00 +17°C° 0 mm 0 mps 632 mmHg 89%
    07:00 +21°C° 0 mm 1 mps 633 mmHg 82%
    08:00 +23°C° 0 mm 1 mps 634 mmHg 75%
    09:00 +26°C° 0 mm 1 mps 635 mmHg 68%
    10:00 +27°C° 0.1 mm 1 mps 636 mmHg 62%
    11:00 +28°C° 0.1 mm 1 mps 636 mmHg 55%
    12:00 +30°C° 0.1 mm 1 mps 636 mmHg 49%
    13:00 +30°C° 0.3 mm 1 mps 636 mmHg 50%
    14:00 +29°C° 0.3 mm 2 mps 635 mmHg 52%
    15:00 +29°C° 0.3 mm 2 mps 635 mmHg 53%
    16:00 +28°C° 1.5 mm 2 mps 634 mmHg 60%
    17:00 +27°C° 1.5 mm 1 mps 634 mmHg 67%
    18:00 +26°C° 1.5 mm 1 mps 634 mmHg 73%
    19:00 +24°C° 1.4 mm 1 mps 634 mmHg 78%
    20:00 +23°C° 1.4 mm 1 mps 634 mmHg 83%
    21:00 +20°C° 1.4 mm 0 mps 634 mmHg 87%
    22:00 +19°C° 0.5 mm 0 mps 634 mmHg 87%
    23:00 +19°C° 0.5 mm 0 mps 634 mmHg 87%

    22 June, Saturday

    Time Temperature Precipitation Wind Pressure Humidity
    00:00 +19°C° 0.5 mm 0 mps 634 mmHg 87%
    01:00 +19°C° 0.1 mm 0 mps 634 mmHg 86%
    02:00 +21°C° 0.1 mm 1 mps 634 mmHg 86%
    03:00 +21°C° 0.1 mm 1 mps 633 mmHg 86%
    04:00 +18°C° 0 mm 0 mps 633 mmHg 86%
    05:00 +18°C° 0 mm 0 mps 633 mmHg 87%
    06:00 +18°C° 0 mm 0 mps 633 mmHg 87%
    07:00 +20°C° 0 mm 0 mps 634 mmHg 81%
    08:00 +21°C° 0 mm 0 mps 635 mmHg 75%
    09:00 +25°C° 0 mm 1 mps 636 mmHg 69%
    10:00 +26°C° 0.1 mm 1 mps 636 mmHg 63%
    11:00 +28°C° 0.1 mm 1 mps 636 mmHg 57%
    12:00 +29°C° 0.1 mm 1 mps 636 mmHg 51%
    13:00 +29°C° 0.9 mm 1 mps 635 mmHg 55%
    14:00 +28°C° 0.9 mm 2 mps 635 mmHg 59%
    15:00 +27°C° 0.9 mm 2 mps 634 mmHg 63%
    16:00 +27°C° 1.8 mm 2 mps 634 mmHg 68%
    17:00 +26°C° 1.8 mm 1 mps 634 mmHg 73%
    18:00 +25°C° 1.8 mm 1 mps 633 mmHg 78%
    19:00 +24°C° 1 mm 1 mps 634 mmHg 81%
    20:00 +23°C° 1 mm 1 mps 634 mmHg 83%
    21:00 +22°C° 1 mm 1 mps 634 mmHg 86%
    22:00 +22°C° 0.7 mm 1 mps 634 mmHg 88%
    23:00 +21°C° 0.7 mm 1 mps 634 mmHg 89%

    23 June, Sunday

    Time Temperature Precipitation Wind Pressure Humidity
    00:00 +21°C° 0.7 mm 1 mps 635 mmHg 91%
    01:00 +21°C° 0.2 mm 1 mps 634 mmHg 91%
    02:00 +19°C° 0.2 mm 0 mps 634 mmHg 92%
    03:00 +19°C° 0.2 mm 0 mps 633 mmHg 93%
    04:00 +18°C° 0 mm 0 mps 633 mmHg 93%
    05:00 +18°C° 0 mm 0 mps 633 mmHg 93%
    06:00 +17°C° 0 mm 0 mps 633 mmHg 93%
    07:00 +19°C° 0 mm 0 mps 634 mmHg 85%
    08:00 +21°C° 0 mm 0 mps 635 mmHg 78%
    09:00 +23°C° 0 mm 0 mps 636 mmHg 71%
    10:00 +25°C° 0.6 mm 1 mps 636 mmHg 69%
    11:00 +26°C° 0.6 mm 1 mps 635 mmHg 67%
    12:00 +27°C° 0.6 mm 1 mps 635 mmHg 65%
    13:00 +27°C° 1.2 mm 1 mps 635 mmHg 66%
    14:00 +27°C° 1.2 mm 1 mps 634 mmHg 67%
    15:00 +27°C° 1.2 mm 2 mps 634 mmHg 68%
    16:00 +26°C° 1.8 mm 2 mps 633 mmHg 73%
    17:00 +25°C° 1.8 mm 2 mps 633 mmHg 78%
    18:00 +24°C° 1.8 mm 2 mps 633 mmHg 83%
    19:00 +23°C° 1.2 mm 1 mps 633 mmHg 85%
    20:00 +23°C° 1.2 mm 1 mps 633 mmHg 87%
    21:00 +22°C° 1.2 mm 1 mps 634 mmHg 88%
    22:00 +21°C° 0.1 mm 1 mps 634 mmHg 89%
    23:00 +21°C° 0.1 mm 1 mps 634 mmHg 90%

    24 June, Monday

    Time Temperature Precipitation Wind Pressure Humidity
    00:00 +18°C° 0.1 mm 0 mps 633 mmHg 91%
    01:00 +18°C° 0 mm 0 mps 633 mmHg 92%
    02:00 +18°C° 0 mm 0 mps 633 mmHg 92%
    03:00 +17°C° 0 mm 0 mps 632 mmHg 93%
    04:00 +17°C° 0 mm 0 mps 632 mmHg 93%
    05:00 +17°C° 0 mm 0 mps 632 mmHg 93%
    06:00 +17°C° 0 mm 0 mps 632 mmHg 93%
    07:00 +19°C° 0 mm 0 mps 633 mmHg 87%
    08:00 +21°C° 0 mm 0 mps 634 mmHg 80%
    09:00 +23°C° 0 mm 0 mps 635 mmHg 74%
    10:00 +26°C° 0.2 mm 1 mps 635 mmHg 69%
    11:00 +27°C° 0.2 mm 1 mps 635 mmHg 65%
    12:00 +28°C° 0.2 mm 1 mps 635 mmHg 61%
    13:00 +28°C° 1.5 mm 2 mps 634 mmHg 62%
    14:00 +27°C° 1.5 mm 2 mps 634 mmHg 64%
    15:00 +27°C° 1.5 mm 2 mps 633 mmHg 66%
    16:00 +26°C° 2 mm 2 mps 633 mmHg 72%
    17:00 +25°C° 2 mm 2 mps 633 mmHg 78%
    18:00 +24°C° 2 mm 1 mps 632 mmHg 84%
    19:00 +23°C° 1.3 mm 1 mps 632 mmHg 86%
    20:00 +22°C° 1.3 mm 1 mps 633 mmHg 88%
    21:00 +22°C° 1.3 mm 1 mps 633 mmHg 90%
    22:00 +21°C° 0.6 mm 1 mps 633 mmHg 90%
    23:00 +21°C° 0.6 mm 1 mps 633 mmHg 90%
    Show more